EZY19D EDDF-EGLL

Flight info

Callsign EZY19D
Flight time 1h 19m
Altitude 38000
Route OBOKA3W/25C OBOKA Z29 TORNU DCT ABNED L980 LOGAN
Aircraft A320/M-SDE3FGHIRWY/LB1

Departure

Time 2026-05-04 15:56
Airport Frankfurt Main Airport (EDDF)

Arrival

Time 2026-05-04 17:15
Airport London Heathrow Airport (EGLL)
Time Latitude Longitude Altitude Speed Heading
2026-05-04 15:20 50.04752 8.56883 364 ft 0 kts 294°
2026-05-04 15:44 50.04744 8.56915 362 ft 4 kts 293°
2026-05-04 15:44 50.04734 8.56946 363 ft 4 kts 292°
2026-05-04 15:45 50.04732 8.56981 362 ft 4 kts 234°
2026-05-04 15:45 50.04750 8.57003 365 ft 3 kts 204°
2026-05-04 15:45 50.04775 8.57021 364 ft 4 kts 205°
2026-05-04 15:45 50.04795 8.57035 361 ft 0 kts 205°
2026-05-04 15:48 50.04713 8.56975 362 ft 14 kts 205°
2026-05-04 15:49 50.04607 8.56908 356 ft 18 kts 196°
2026-05-04 15:49 50.04488 8.56867 359 ft 18 kts 191°
2026-05-04 15:49 50.04363 8.56832 360 ft 19 kts 191°
2026-05-04 15:49 50.04279 8.56900 362 ft 14 kts 91°
2026-05-04 15:50 50.04303 8.57019 362 ft 9 kts 69°
2026-05-04 15:50 50.04316 8.57072 362 ft 0 kts 69°
2026-05-04 15:50 50.04331 8.57132 364 ft 13 kts 69°
2026-05-04 15:50 50.04366 8.57278 363 ft 13 kts 70°
2026-05-04 15:51 50.04397 8.57409 361 ft 16 kts 70°
2026-05-04 15:51 50.04443 8.57606 370 ft 22 kts 70°
2026-05-04 15:51 50.04497 8.57829 366 ft 22 kts 70°
2026-05-04 15:51 50.04548 8.58039 366 ft 20 kts 69°
2026-05-04 15:52 50.04594 8.58233 368 ft 17 kts 70°
2026-05-04 15:52 50.04629 8.58383 372 ft 14 kts 70°
2026-05-04 15:52 50.04654 8.58515 369 ft 12 kts 94°
2026-05-04 15:52 50.04601 8.58586 369 ft 9 kts 157°
2026-05-04 15:53 50.04550 8.58617 371 ft 6 kts 159°
2026-05-04 15:53 50.04516 8.58637 371 ft 5 kts 160°
2026-05-04 15:53 50.04492 8.58625 371 ft 4 kts 243°
2026-05-04 15:53 50.04485 8.58579 370 ft 5 kts 253°
2026-05-04 15:54 50.04476 8.58540 370 ft 0 kts 249°
2026-05-04 15:55 50.04462 8.58482 370 ft 25 kts 250°
2026-05-04 15:55 50.04308 8.57830 367 ft 99 kts 248°
2026-05-04 15:55 50.03994 8.56534 359 ft 155 kts 249°
2026-05-04 15:56 50.03602 8.54841 767 ft 168 kts 251°
2026-05-04 15:56 50.03188 8.53146 1489 ft 168 kts 250°
2026-05-04 15:56 50.02765 8.51393 1982 ft 186 kts 252°
2026-05-04 15:56 50.02258 8.49386 2418 ft 208 kts 245°
2026-05-04 15:57 50.01244 8.47798 3134 ft 216 kts 205°
2026-05-04 15:57 49.99773 8.47480 4022 ft 216 kts 179°
2026-05-04 15:57 49.98291 8.47655 5019 ft 211 kts 179°
2026-05-04 15:57 49.96852 8.47645 6000 ft 204 kts 185°
2026-05-04 15:58 49.95474 8.47204 6842 ft 202 kts 205°
2026-05-04 15:58 49.94394 8.45858 7604 ft 205 kts 232°
2026-05-04 15:58 49.93846 8.43677 7989 ft 235 kts 264°
2026-05-04 15:58 49.94295 8.41104 8389 ft 268 kts 300°
2026-05-04 15:59 49.95752 8.39124 8920 ft 291 kts 321°
2026-05-04 15:59 49.97190 8.36966 9686 ft 290 kts 303°
2026-05-04 15:59 49.98334 8.34364 10353 ft 300 kts 297°
2026-05-04 15:59 49.99417 8.31470 10706 ft 320 kts 296°
2026-05-04 16:00 50.00565 8.28424 11327 ft 329 kts 297°
2026-05-04 16:00 50.01783 8.25390 12080 ft 335 kts 300°
2026-05-04 16:00 50.03101 8.22354 12809 ft 341 kts 301°
2026-05-04 16:00 50.04493 8.19325 13599 ft 346 kts 303°
2026-05-04 16:01 50.05928 8.16305 14317 ft 349 kts 303°
2026-05-04 16:01 50.07363 8.13247 15036 ft 351 kts 302°
2026-05-04 16:01 50.08771 8.10202 15752 ft 353 kts 302°
2026-05-04 16:01 50.10212 8.07084 16411 ft 357 kts 302°
2026-05-04 16:02 50.11670 8.03938 17093 ft 359 kts 302°
2026-05-04 16:02 50.13136 8.00769 17804 ft 361 kts 302°
2026-05-04 16:02 50.16112 7.94342 18959 ft 370 kts 302°
2026-05-04 16:03 50.17610 7.91059 19509 ft 374 kts 301°
2026-05-04 16:03 50.19124 7.87741 20085 ft 377 kts 302°
2026-05-04 16:03 50.20630 7.84447 20674 ft 379 kts 301°
2026-05-04 16:03 50.22163 7.81088 21258 ft 382 kts 301°
2026-05-04 16:04 50.23735 7.77702 21796 ft 388 kts 305°
2026-05-04 16:04 50.27840 7.71988 22901 ft 401 kts 316°
2026-05-04 16:04 50.30007 7.69222 23452 ft 404 kts 316°
2026-05-04 16:05 50.32205 7.66434 23938 ft 407 kts 317°
2026-05-04 16:05 50.34409 7.63645 24386 ft 410 kts 317°
2026-05-04 16:05 50.38868 7.58005 25288 ft 414 kts 316°
2026-05-04 16:06 50.41085 7.55186 25717 ft 416 kts 316°
2026-05-04 16:06 50.47106 7.47496 26817 ft 423 kts 316°
2026-05-04 16:07 50.50171 7.43572 27350 ft 426 kts 316°
2026-05-04 16:07 50.57117 7.34666 28524 ft 433 kts 316°
2026-05-04 16:08 50.59455 7.31656 28888 ft 436 kts 316°
2026-05-04 16:08 50.66511 7.22554 29950 ft 443 kts 316°
2026-05-04 16:09 50.71300 7.16351 30534 ft 447 kts 316°
2026-05-04 16:09 50.76123 7.10096 31085 ft 451 kts 316°
2026-05-04 16:10 50.80985 7.03776 31660 ft 453 kts 316°
2026-05-04 16:11 50.87509 6.93371 32671 ft 439 kts 297°
2026-05-04 16:11 50.88973 6.89172 33026 ft 434 kts 291°
2026-05-04 16:12 50.93049 6.76434 34119 ft 431 kts 291°
2026-05-04 16:12 50.97096 6.63765 34981 ft 429 kts 291°
2026-05-04 16:13 50.99745 6.55426 35453 ft 430 kts 291°
2026-05-04 16:13 51.02428 6.46948 35947 ft 430 kts 292°
2026-05-04 16:14 51.05106 6.38472 36527 ft 429 kts 292°
2026-05-04 16:14 51.07780 6.29986 37049 ft 429 kts 292°
2026-05-04 16:15 51.11747 6.17340 37691 ft 428 kts 292°
2026-05-04 16:16 51.14208 6.08749 37995 ft 424 kts 283°
2026-05-04 16:17 51.17881 5.86144 37987 ft 421 kts 281°
2026-05-04 16:18 51.22215 5.68720 37987 ft 425 kts 289°
2026-05-04 16:19 51.27916 5.46956 37964 ft 427 kts 289°
2026-05-04 16:20 51.33620 5.25027 37987 ft 428 kts 289°
2026-05-04 16:22 51.39280 5.03011 37972 ft 430 kts 289°
2026-05-04 16:23 51.46054 4.76390 37988 ft 430 kts 289°
2026-05-04 16:25 51.52774 4.49693 37981 ft 432 kts 288°
2026-05-04 16:26 51.60550 4.18385 37983 ft 432 kts 288°
2026-05-04 16:28 51.66035 3.95979 37992 ft 431 kts 288°
2026-05-04 16:29 51.73685 3.64430 38007 ft 433 kts 288°
2026-05-04 16:31 51.79080 3.41896 38019 ft 433 kts 288°
2026-05-04 16:32 51.84563 3.14379 38024 ft 425 kts 268°
2026-05-04 16:33 51.83513 2.95451 38017 ft 423 kts 261°
2026-05-04 16:34 51.82577 2.81271 38019 ft 423 kts 261°
2026-05-04 16:35 51.81632 2.67244 36584 ft 411 kts 261°
2026-05-04 16:35 51.80704 2.53762 35304 ft 394 kts 260°
2026-05-04 16:36 51.80401 2.49403 34889 ft 388 kts 260°
2026-05-04 16:36 51.79797 2.40845 34092 ft 378 kts 260°
2026-05-04 16:37 51.79201 2.32541 33179 ft 371 kts 260°
2026-05-04 16:37 51.78903 2.28444 32718 ft 365 kts 260°
2026-05-04 16:37 51.78332 2.20440 31806 ft 353 kts 260°
2026-05-04 16:38 51.77867 2.12651 30916 ft 346 kts 261°
2026-05-04 16:39 51.77225 2.01226 29202 ft 338 kts 261°
2026-05-04 16:39 51.76784 1.93817 28258 ft 326 kts 261°
2026-05-04 16:40 51.76339 1.86546 27344 ft 324 kts 261°
2026-05-04 16:40 51.75891 1.79341 26458 ft 322 kts 261°
2026-05-04 16:41 51.75453 1.72226 25608 ft 320 kts 261°
2026-05-04 16:41 51.74786 1.61584 24365 ft 316 kts 261°
2026-05-04 16:42 51.74117 1.51050 23095 ft 313 kts 261°
2026-05-04 16:43 51.73670 1.44058 22177 ft 313 kts 262°
2026-05-04 16:43 51.73221 1.37083 21281 ft 313 kts 262°
2026-05-04 16:43 51.72996 1.33638 20849 ft 313 kts 262°
2026-05-04 16:44 51.72062 1.19673 19158 ft 314 kts 262°
2026-05-04 16:45 51.71595 1.12681 18453 ft 311 kts 262°
2026-05-04 16:46 51.70901 1.02364 17586 ft 307 kts 262°
2026-05-04 16:46 51.70427 0.95548 17006 ft 304 kts 262°
2026-05-04 16:47 51.69958 0.88799 16449 ft 301 kts 262°
2026-05-04 16:47 51.69497 0.82129 15893 ft 298 kts 262°
2026-05-04 16:48 51.68800 0.72290 15070 ft 295 kts 262°
2026-05-04 16:48 51.68566 0.69012 14800 ft 293 kts 262°
2026-05-04 16:49 51.68103 0.62515 14266 ft 290 kts 262°
2026-05-04 16:49 51.67635 0.56088 13729 ft 288 kts 263°
2026-05-04 16:50 51.67170 0.49706 13137 ft 286 kts 263°
2026-05-04 16:50 51.66716 0.43418 12562 ft 281 kts 263°
2026-05-04 16:51 51.66261 0.37205 12002 ft 277 kts 262°
2026-05-04 16:51 51.66032 0.34130 11732 ft 276 kts 262°
2026-05-04 16:51 51.65572 0.28013 11171 ft 274 kts 262°
2026-05-04 16:52 51.65112 0.21942 10627 ft 271 kts 262°
2026-05-04 16:52 51.64884 0.18951 10360 ft 267 kts 262°
2026-05-04 16:53 51.64673 0.13123 9810 ft 260 kts 272°
2026-05-04 16:53 51.64998 0.04609 8948 ft 248 kts 271°
2026-05-04 16:54 51.65099 0.01865 8657 ft 244 kts 272°
2026-05-04 16:55 51.65473 -0.08586 7636 ft 239 kts 270°
2026-05-04 16:55 51.65659 -0.13867 7142 ft 238 kts 272°
2026-05-04 16:56 51.64580 -0.18610 6647 ft 231 kts 220°
2026-05-04 16:56 51.60064 -0.21376 5874 ft 235 kts 190°
2026-05-04 16:57 51.58438 -0.21318 5618 ft 236 kts 166°
2026-05-04 16:57 51.55936 -0.18266 5089 ft 228 kts 125°
2026-05-04 16:58 51.52909 -0.12742 4312 ft 218 kts 162°
2026-05-04 16:58 51.51393 -0.12369 3830 ft 227 kts 180°
2026-05-04 16:59 51.48442 -0.13998 3120 ft 230 kts 218°
2026-05-04 17:00 51.46528 -0.22867 2518 ft 198 kts 272°
2026-05-04 17:00 51.46522 -0.29104 1886 ft 180 kts 273°
2026-05-04 17:01 51.46516 -0.32857 1428 ft 159 kts 274°
2026-05-04 17:01 51.46507 -0.36296 1015 ft 153 kts 275°
2026-05-04 17:02 51.46510 -0.39685 552 ft 150 kts 274°
2026-05-04 17:02 51.46498 -0.43040 183 ft 150 kts 271°
2026-05-04 17:03 51.46501 -0.44639 126 ft 138 kts 269°
2026-05-04 17:03 51.46453 -0.46361 643 ft 166 kts 268°
2026-05-04 17:03 51.46419 -0.50427 1731 ft 206 kts 272°
2026-05-04 17:04 51.46082 -0.55206 3000 ft 223 kts 240°
2026-05-04 17:04 51.43503 -0.57465 4276 ft 223 kts 172°
2026-05-04 17:05 51.40696 -0.55416 4976 ft 223 kts 148°
2026-05-04 17:05 51.38251 -0.52536 4340 ft 218 kts 134°
2026-05-04 17:06 51.37187 -0.48297 3271 ft 207 kts 79°
2026-05-04 17:06 51.37661 -0.46212 3020 ft 198 kts 59°
2026-05-04 17:07 51.38155 -0.41788 3008 ft 208 kts 79°
2026-05-04 17:07 51.38273 -0.41036 3009 ft 207 kts 66°
2026-05-04 17:07 51.39109 -0.37499 3010 ft 208 kts 86°
2026-05-04 17:07 51.39059 -0.35180 3008 ft 209 kts 92°
2026-05-04 17:08 51.38943 -0.32898 3008 ft 209 kts 94°
2026-05-04 17:08 51.38399 -0.28323 3005 ft 210 kts 101°
2026-05-04 17:08 51.38111 -0.26044 3003 ft 208 kts 97°
2026-05-04 17:09 51.37831 -0.23760 3002 ft 210 kts 99°
2026-05-04 17:09 51.37562 -0.21478 3001 ft 208 kts 98°
2026-05-04 17:09 51.37306 -0.19188 2999 ft 209 kts 95°
2026-05-04 17:10 51.38400 -0.15372 2999 ft 201 kts 26°
2026-05-04 17:10 51.42562 -0.15823 2999 ft 210 kts 333°
2026-05-04 17:11 51.43923 -0.16576 3000 ft 207 kts 353°
2026-05-04 17:11 51.45298 -0.17238 3003 ft 210 kts 329°
2026-05-04 17:11 51.46552 -0.21298 3009 ft 218 kts 271°
2026-05-04 17:12 51.46547 -0.22878 2987 ft 210 kts 271°
2026-05-04 17:12 51.46522 -0.28107 2063 ft 188 kts 272°
2026-05-04 17:13 51.46514 -0.33156 1402 ft 159 kts 274°
2026-05-04 17:14 51.46508 -0.38346 764 ft 151 kts 271°
2026-05-04 17:14 51.46508 -0.40017 536 ft 149 kts 272°
2026-05-04 17:14 51.46503 -0.43356 143 ft 150 kts 271°
2026-05-04 17:15 51.46489 -0.45235 88 ft 96 kts 270°
2026-05-04 17:15 51.46492 -0.46518 89 ft 40 kts 278°
2026-05-04 17:16 51.46612 -0.46860 88 ft 10 kts 349°
2026-05-04 17:16 51.46848 -0.46863 89 ft 14 kts 359°
2026-05-04 17:17 51.46956 -0.46864 86 ft 17 kts 359°
2026-05-04 17:17 51.47238 -0.46818 90 ft 8 kts 67°
2026-05-04 17:18 51.47238 -0.46722 86 ft 10 kts 90°
2026-05-04 17:18 51.47236 -0.46440 86 ft 15 kts 101°
2026-05-04 17:19 51.47087 -0.46261 87 ft 7 kts 158°
2026-05-04 17:19 51.47045 -0.46340 88 ft 4 kts 237°